AAL2575 KEGE-KDFW

Flight info

Callsign AAL2575
Flight time N/A
Altitude 37000
Route APRES2 APRES COORZ EZEEE MDANO VKTRY2
Aircraft A319/M-SDE3FGHIRWY/LB1

Departure

Time 2026-04-22 18:09
Airport Eagle County Regional Airport (KEGE)

Arrival

Time N/A
Airport Dallas Fort Worth International Airport (KDFW)
Time Latitude Longitude Altitude Speed Heading
2026-04-22 17:19 39.64060 -106.91482 6527 ft 0 kts 173°
2026-04-22 18:00 39.64076 -106.91485 6528 ft 4 kts 169°
2026-04-22 18:00 39.64105 -106.91491 6549 ft 4 kts 153°
2026-04-22 18:00 39.64116 -106.91513 6542 ft 3 kts 82°
2026-04-22 18:00 39.64112 -106.91546 6549 ft 2 kts 82°
2026-04-22 18:01 39.64112 -106.91549 6523 ft 0 kts 82°
2026-04-22 18:03 39.64114 -106.91535 6527 ft 6 kts 81°
2026-04-22 18:03 39.64122 -106.91454 6527 ft 9 kts 83°
2026-04-22 18:04 39.64130 -106.91382 6527 ft 8 kts 81°
2026-04-22 18:04 39.64138 -106.91304 6528 ft 10 kts 82°
2026-04-22 18:04 39.64160 -106.91240 6528 ft 6 kts 30°
2026-04-22 18:04 39.64192 -106.91235 6529 ft 7 kts
2026-04-22 18:05 39.64213 -106.91174 6532 ft 7 kts 82°
2026-04-22 18:05 39.64221 -106.91101 6532 ft 11 kts 82°
2026-04-22 18:05 39.64232 -106.90992 6534 ft 12 kts 82°
2026-04-22 18:05 39.64243 -106.90899 6537 ft 9 kts 82°
2026-04-22 18:06 39.64254 -106.90800 6540 ft 16 kts 82°
2026-04-22 18:06 39.64269 -106.90656 6541 ft 16 kts 82°
2026-04-22 18:06 39.64285 -106.90509 6542 ft 16 kts 82°
2026-04-22 18:06 39.64300 -106.90377 6546 ft 13 kts 82°
2026-04-22 18:07 39.64313 -106.90259 6550 ft 13 kts 82°
2026-04-22 18:07 39.64326 -106.90136 6551 ft 14 kts 82°
2026-04-22 18:07 39.64353 -106.90021 6551 ft 14 kts 43°
2026-04-22 18:07 39.64440 -106.90030 6552 ft 12 kts 343°
2026-04-22 18:08 39.64444 -106.90066 6551 ft 4 kts 259°
2026-04-22 18:08 39.64433 -106.90164 6550 ft 31 kts 262°
2026-04-22 18:08 39.64368 -106.90742 6540 ft 97 kts 262°
2026-04-22 18:08 39.64248 -106.91850 6509 ft 151 kts 263°
2026-04-22 18:09 39.64106 -106.93288 6977 ft 161 kts 257°
2026-04-22 18:09 39.63659 -106.94555 7850 ft 159 kts 223°
2026-04-22 18:09 39.62748 -106.95390 8448 ft 165 kts 218°
2026-04-22 18:09 39.61755 -106.96294 8713 ft 181 kts 217°
2026-04-22 18:10 39.60727 -106.97232 9314 ft 180 kts 217°
2026-04-22 18:10 39.59720 -106.98184 10054 ft 178 kts 220°
2026-04-22 18:10 39.58756 -106.99290 10399 ft 196 kts 227°
2026-04-22 18:10 39.57957 -107.00851 10609 ft 222 kts 242°
2026-04-22 18:11 39.57527 -107.02854 11161 ft 238 kts 260°
2026-04-22 18:11 39.57610 -107.05031 12042 ft 246 kts 275°
2026-04-22 18:11 39.58195 -107.07169 12804 ft 261 kts 291°
2026-04-22 18:11 39.59329 -107.09096 13579 ft 279 kts 310°
2026-04-22 18:12 39.60984 -107.10504 14390 ft 292 kts 329°
2026-04-22 18:12 39.63002 -107.11138 15129 ft 308 kts 351°
2026-04-22 18:12 39.64440 -107.11026 15588 ft 319 kts
2026-04-22 18:12 39.67347 -107.10212 16539 ft 325 kts
2026-04-22 18:13 39.69526 -107.09271 17177 ft 338 kts 24°
2026-04-22 18:13 39.71469 -107.07486 17811 ft 348 kts 44°
2026-04-22 18:13 39.72967 -107.04963 18180 ft 363 kts 65°
2026-04-22 18:13 39.73797 -107.01827 18346 ft 374 kts 86°
2026-04-22 18:14 39.74129 -106.98383 18472 ft 394 kts 88°
2026-04-22 18:14 39.74463 -106.94752 18609 ft 414 kts 88°
2026-04-22 18:14 39.74826 -106.90988 19021 ft 424 kts 87°
2026-04-22 18:14 39.75208 -106.87172 19570 ft 429 kts 86°
2026-04-22 18:15 39.75602 -106.83310 20150 ft 433 kts 86°
2026-04-22 18:15 39.76000 -106.79411 20731 ft 437 kts 86°
2026-04-22 18:15 39.76395 -106.75478 21310 ft 441 kts 86°
2026-04-22 18:15 39.76785 -106.71510 21890 ft 445 kts 86°
2026-04-22 18:16 39.77174 -106.67501 22433 ft 448 kts 86°
2026-04-22 18:16 39.77560 -106.63467 22987 ft 452 kts 86°